TimeMDT,TemperatureF,Dew PointF,Humidity,Sea Level PressureIn,VisibilityMPH,Wind Direction,Wind SpeedMPH,Gust SpeedMPH,PrecipitationIn,Events,Conditions,WindDirDegrees,DateUTC
12:53 AM,61.0,50.0,67,29.89,10.0,Calm,Calm,-,N/A,,Mostly Cloudy,0,2013-07-03 06:53:00
1:53 AM,62.1,48.9,62,29.90,10.0,SSE,9.2,-,N/A,,Mostly Cloudy,150,2013-07-03 07:53:00
2:53 AM,57.0,50.0,77,29.91,10.0,Calm,Calm,-,0.00,,Clear,0,2013-07-03 08:53:00
3:53 AM,57.0,50.0,77,29.96,10.0,Calm,Calm,-,N/A,,Clear,0,2013-07-03 09:53:00
4:53 AM,54.0,50.0,86,29.97,10.0,Calm,Calm,-,N/A,,Clear,0,2013-07-03 10:53:00
5:53 AM,50.0,48.9,96,29.98,10.0,Calm,Calm,-,N/A,,Clear,0,2013-07-03 11:53:00
7:53 AM,59.0,51.1,75,29.93,10.0,Calm,Calm,-,N/A,,Clear,0,2013-07-03 13:53:00
8:53 AM,63.0,50.0,63,29.92,10.0,Calm,Calm,-,N/A,,Clear,0,2013-07-03 14:53:00
9:53 AM,66.0,50.0,56,29.91,10.0,Calm,Calm,-,N/A,,Clear,0,2013-07-03 15:53:00
10:53 AM,72.0,52.0,49,29.88,10.0,Calm,Calm,-,N/A,,Clear,0,2013-07-03 16:53:00
11:53 AM,77.0,48.9,37,29.85,10.0,Variable,4.6,-,N/A,,Clear,0,2013-07-03 17:53:00
12:53 PM,84.0,39.9,21,29.80,10.0,NNE,5.8,-,N/A,,Clear,20,2013-07-03 18:53:00
1:53 PM,82.9,45.0,26,29.77,10.0,SE,9.2,16.1,N/A,,Clear,130,2013-07-03 19:53:00
2:53 PM,87.1,37.9,18,29.76,10.0,Variable,5.8,-,N/A,,Partly Cloudy,0,2013-07-03 20:53:00
3:53 PM,87.1,32.0,14,29.74,10.0,NNW,11.5,-,N/A,,Clear,340,2013-07-03 21:53:00
4:53 PM,87.1,32.0,14,29.72,10.0,NNW,18.4,27.6,N/A,,Clear,340,2013-07-03 22:53:00
5:53 PM,87.1,33.1,15,29.69,10.0,NW,17.3,26.5,N/A,,Scattered Clouds,320,2013-07-03 23:53:00
6:53 PM,87.1,30.9,13,29.68,10.0,NW,11.5,-,N/A,,Clear,320,2013-07-04 00:53:00
7:53 PM,84.0,30.9,15,29.69,10.0,NW,8.1,18.4,N/A,,Clear,320,2013-07-04 01:53:00
8:53 PM,78.1,34.0,20,29.72,10.0,North,3.5,-,N/A,,Clear,360,2013-07-04 02:53:00
9:53 PM,73.0,37.9,28,29.74,10.0,NNE,5.8,-,N/A,,Clear,30,2013-07-04 03:53:00
10:53 PM,66.9,42.1,40,29.73,10.0,South,3.5,-,N/A,,Clear,190,2013-07-04 04:53:00
11:53 PM,68.0,39.0,35,29.71,10.0,ESE,11.5,-,N/A,,Clear,110,2013-07-04 05:53:00